This is the latest recevied weather packets stored in our database for station/object N9BSW. If no packets are shown the sender has not sent any weather packets the latest 10 day(s).
| Time | Temp. | Humidity | Pressure | Rain* | Wind** | Luminosity | Snow |
|---|---|---|---|---|---|---|---|
| 1776963994 | 27.78° C | 36% | 1014.8 hPa | 0 mm | - | 800 W/m² | - |
| 1776963693 | 28.33° C | 37% | 1014.7 hPa | 0 mm | - | 803 W/m² | - |
| 1776963388 | 27.78° C | 37% | 1014.9 hPa | 0 mm | - | 801 W/m² | - |
| 1776963086 | 27.78° C | 36% | 1014.9 hPa | 0 mm | - | 793 W/m² | - |
| 1776962782 | 27.78° C | 39% | 1015.1 hPa | 0 mm | - | 782 W/m² | - |
| 1776962476 | 27.22° C | 39% | 1015 hPa | 0 mm | - | 776 W/m² | - |
| 1776962176 | 26.67° C | 40% | 1015.2 hPa | 0 mm | - | 765 W/m² | - |
| 1776961876 | 27.22° C | 39% | 1015.2 hPa | 0 mm | - | 756 W/m² | - |
| 1776961575 | 27.22° C | 41% | 1015.4 hPa | 0 mm | - | 746 W/m² | - |
| 1776961274 | 26.67° C | 39% | 1015.3 hPa | 0 mm | - | 734 W/m² | - |
| 1776960969 | 26.67° C | 39% | 1015.4 hPa | 0 mm | - | 734 W/m² | - |
| 1776960664 | 26.67° C | 42% | 1015.4 hPa | 0 mm | - | 723 W/m² | - |
| 1776960364 | 26.67° C | 42% | 1015.4 hPa | 0 mm | - | 713 W/m² | - |
| 1776960064 | 26.11° C | 42% | 1015.7 hPa | 0 mm | - | 706 W/m² | - |
| 1776959760 | 26.11° C | 44% | 1015.8 hPa | 0 mm | - | 697 W/m² | - |
| 1776959458 | 26.11° C | 41% | 1015.8 hPa | 0 mm | - | 689 W/m² | - |
| 1776959153 | 26.11° C | 43% | 1016 hPa | 0 mm | - | 678 W/m² | - |
| 1776958849 | 25.56° C | 44% | 1015.7 hPa | 0 mm | - | 667 W/m² | - |
| 1776958547 | 25.56° C | 44% | 1015.7 hPa | 0 mm | - | 655 W/m² | - |
| 1776958246 | 26.11° C | 41% | 1015.9 hPa | 0 mm | - | 644 W/m² | - |
| 1776957942 | 25.56° C | 45% | 1015.8 hPa | 0 mm | - | 631 W/m² | - |
| 1776957638 | 25° C | 44% | 1015.9 hPa | 0 mm | - | 621 W/m² | - |
| 1776957333 | 24.44° C | 46% | 1015.6 hPa | 0 mm | - | 609 W/m² | - |
| 1776957027 | 25° C | 47% | 1015.8 hPa | 0 mm | - | 597 W/m² | - |
| 1776956726 | 25° C | 46% | 1015.9 hPa | 0 mm | - | 581 W/m² | - |
* Rain latest hour (hover to see other rain measurements)
** Current wind speed in m/s (hover to see current wind gust speed)